Location: *
(34.1609°S, 19.4396°E)
Time: 20:24:09
(UTC+00:00)

Daily predictions for brighter satellites

Satellite Brightness Start Highest point End
(mag) Time Altitude Azimuth Time Altitude Azimuth Time Altitude Azimuth
Cosmos 2173 Rocket 4.1 16:10:05 10° S 16:16:27 61° E 16:22:41 10° NNE
Cosmos 1980 Rocket 4.4 16:13:46 10° SW 16:18:47 32° WNW 16:23:45 10° NNW
COBE Rocket 4.3 16:15:53 10° NE 16:20:09 37° ESE 16:24:30 10° S
COSMOS 2487 3.6 16:17:04 10° NW 16:20:26 45° WSW 16:23:52 10° S
SKYMED 2 4.4 16:18:20 10° N 16:22:37 57° W 16:26:58 10° SSW
Cosmos 2123 Rocket 4.3 16:17:00 10° NNE 16:23:02 48° E 16:29:08 10° SSE
IRS-1C Rocket 4.2 16:19:28 10° SSE 16:24:45 60° ENE 16:29:58 10° N
CRYOSAT 2 4.5 16:23:18 10° N 16:28:11 87° W 16:33:08 10° S
USA 229 DEB 3.6 16:21:49 10° SSW 16:28:41 82° ESE 16:35:14 10° NNE
USA 229 3.6 16:21:56 10° SSW 16:28:48 81° ESE 16:35:21 10° NNE
NOSS 3-1 (A) 3.6 16:27:24 10° SSW 16:33:17 44° SE 16:38:27 10° NE
Okean-O 3.4 16:29:46 10° SSE 16:33:49 33° E 16:37:50 10° NNE
Cosmos 1812 Rocket 3.8 16:32:40 10° NNE 16:36:52 49° E 16:41:06 10° SSE
Cosmos 2016 Rocket 4.0 16:30:48 10° S 16:36:56 60° E 16:43:04 10° NNE
Cosmos 2056 Rocket 4.4 16:34:36 10° NNE 16:39:10 29° E 16:43:44 10° SE
CZ-4C R/B 3.1 16:31:55 10° NNW 16:40:13 89° WSW 16:47:38 10° SSE
FENGYUN 3A 3.9 16:35:06 10° S 16:40:35 77° WSW 16:46:01 10° NNW
Meteor 1-11 4.3 16:35:10 10° S 16:40:49 60° E 16:46:28 10° NNE
Cosmos 2219 Rocket 3.8 16:38:15 10° SSE 16:41:01 14° SE 16:42:27 12° ESE
Timation 2 Rocket 3.9 16:36:01 10° N 16:41:55 63° ENE 16:47:52 10° SSE
H-2A R/B 3.6 16:39:22 10° SE 16:42:52 30° E 16:46:19 10° NNE
Cosmos 2322 Rocket 2.4 16:41:27 10° SSW 16:47:11 78° WNW 16:52:52 10° NNE
Unknown 4.0 16:43:57 10° SSW 16:47:13 33° SE 16:49:41 15° E
Cosmos 1076 Rocket 4.3 16:43:51 10° SSE 16:47:42 29° ESE 16:51:30 10° NE
Hubble Space Telescope 3.0 16:46:58 10° NNW 16:49:18 15° NNE 16:51:38 10° NE
CORIOLIS 4.4 16:45:49 10° SSE 16:51:05 49° E 16:56:17 10° N
Cosmos 1725 Rocket 4.0 16:46:04 10° S 16:52:17 62° E 16:58:27 10° NNE
Cosmos 1867 4.4 16:49:14 10° S 16:53:53 28° SE 16:58:05 12° ENE
Cosmos 1726 3.5 16:51:42 10° NNW 16:55:18 42° W 16:58:57 10° S
SL-16 R/B 3.0 16:50:21 10° SSW 16:55:56 55° WNW 17:01:27 10° N
YAOGAN 1 4.3 16:56:45 14° ENE 16:56:45 14° ENE 16:58:30 10° NE
SL-24 DEB 4.4 16:52:00 10° NNE 16:56:30 51° E 17:01:04 10° S
Cosmos 1908 3.9 16:53:15 10° NNW 16:57:03 58° W 17:00:58 10° S
Atlas Centaur 2 3.4 16:53:19 10° W 16:58:47 43° NNW 17:05:33 10° NE
FALCON 9 DEB 3.6 16:55:23 10° SSW 16:58:50 42° SE 17:00:49 21° ENE
Abrixas rocket 3.3 16:58:47 10° NNW 17:01:24 26° NE 17:02:07 23° ENE
GPS 2-04 Rocket1 2.8 16:57:31 10° WSW 17:01:47 87° SSE 17:04:32 21° E
Cosmos 1624 Rocket 4.1 16:58:27 10° N 17:03:29 52° ENE 17:08:27 11° SSE
Cosmos 2333 Rocket 3.4 16:59:28 10° S 17:03:51 22° ESE 17:04:50 21° ESE
Cosmos 2233 Rocket 4.2 16:57:53 10° S 17:03:53 47° E 17:09:53 10° NNE
APEX 3.3 17:01:05 10° SSW 17:04:51 76° ESE 17:09:39 10° NNE
Cosmos 1300 2.9 17:02:39 10° NNE 17:06:20 46° E 17:09:27 14° SSE
ADEOS Rocket 4.3 17:07:43 20° ESE 17:07:56 20° ESE 17:12:36 10° SSE
SMAP 3.2 17:04:41 10° S 17:09:25 79° WSW 17:14:04 10° NNW
CZ-2C R/B 3.7 17:07:16 10° NNE 17:12:02 83° ESE 17:16:46 10° S
Cosmos 2322 3.9 17:06:46 10° S 17:12:18 47° ESE 17:17:45 10° NE
Cosmos 2058 3.6 17:09:03 10° SSE 17:12:51 32° E 17:16:37 10° NE
ALOS 4.3 17:10:39 10° SSW 17:14:37 27° WSW 17:18:34 10° NW
Cosmos 1371 Rocket 4.0 17:09:22 10° NNW 17:14:44 82° ENE 17:20:10 10° SSE
Unknown 3.1 17:16:15 10° SW 17:19:49 66° SE 17:20:47 43° ENE
Cosmos 2227 Rocket 4.0 17:17:09 10° NE 17:18:19 13° NE 17:18:19 13° NE
OAO 2 Rocket 3.3 17:20:31 10° WNW 17:25:38 78° NNE 17:27:34 38° E
Falcon 9 debris 3.1 17:22:32 10° SW 17:26:05 90° NW 17:27:06 45° NE
Meteor 2-1 Rocket 4.1 17:20:44 10° N 17:26:21 70° E 17:31:57 10° SSE
CZ-4 R/B 1.6 17:26:09 42° ESE 17:26:56 48° E 17:31:00 10° N
CSL-04 Rocket 4.1 17:26:10 30° SE 17:28:11 40° E 17:33:15 10° NNE
Cosmos 1271 Rocket 3.2 17:24:50 10° SSW 17:28:37 59° W 17:32:21 10° N
Unknown 4.5 17:25:05 10° SSW 17:28:35 33° SSE 17:28:35 33° SSE
Unknown 3.1 17:26:15 10° SW 17:29:48 82° NW 17:30:38 49° NE
Cosmos 1356 4.2 17:27:06 10° N 17:29:31 38° NE 17:29:31 38° NE
Unknown 4.4 17:26:44 10° SSW 17:30:11 34° SSE 17:30:11 34° SSE
NOSS 2-3 (C) 4.0 17:24:22 10° SSW 17:30:44 75° ESE 17:34:41 17° NE
Unknown 4.4 17:28:24 10° SSW 17:31:49 35° SSE 17:31:49 35° SSE
Unknown 4.4 17:30:02 10° SSW 17:33:24 36° SSE 17:33:24 36° SSE
NOAA 12 4.0 17:30:11 10° SSE 17:35:35 87° ENE 17:40:56 10° NNW
Unknown 4.4 17:31:38 10° SSW 17:34:58 36° SSE 17:34:58 36° SSE
Unknown 4.4 17:32:09 10° SSW 17:35:31 37° SSE 17:35:31 37° SSE
Unknown 4.4 17:34:58 10° SSW 17:38:13 37° S 17:38:13 37° S
Cosmos 1452 Rocket 4.2 17:34:24 10° NNE 17:38:14 34° NE 17:38:14 34° NE
Cosmos-2242 2.9 17:35:20 10° N 17:39:42 86° E 17:41:55 29° S
Cosmos 2219 3.4 17:34:23 10° N 17:39:51 49° ENE 17:40:43 45° ESE
Starlink (trailer) 4.4 17:36:37 10° SSW 17:39:48 38° S 17:39:48 38° S
Cosmos 2297 Rocket 3.6 17:37:19 10° NNE 17:39:43 21° NE 17:39:43 21° NE
Unknown 4.4 17:38:16 10° SSW 17:41:25 38° S 17:41:25 38° S
Unknown 4.4 17:39:45 10° WSW 17:42:42 34° NW 17:43:21 31° NNW
Unknown 4.4 17:40:07 10° WSW 17:43:03 34° NW 17:43:42 30° NNW
Unknown 4.4 17:39:55 10° SSW 17:43:00 38° S 17:43:00 38° S
Okean 3 Rocket 3.5 17:44:49 10° S 17:49:24 78° E 17:53:57 10° N
Cosmos 1420 Rocket 4.0 17:45:06 10° N 17:50:13 57° ENE 17:50:13 57° ENE
CSL-04 Debris 4.1 17:49:52 44° SE 17:51:35 68° ENE 17:57:03 10° N
Envisat 2.9 17:52:39 36° SSE 17:54:48 88° E 17:59:54 10° NNW
COSMOS 2428 2.6 17:50:57 10° SSW 17:56:32 62° ESE 17:56:32 62° ESE
Cosmos 2360 Rocket 3.6 17:52:38 10° SW 17:57:55 39° WNW 18:03:08 10° N
Cosmos 2237 Rocket 4.5 17:58:14 10° S 17:58:17 10° S 17:58:17 10° S
USA 234 3.1 18:18:25 75° E 18:18:51 79° NE 18:25:26 10° NW
Cosmos 2219 Rocket 2.6 18:19:52 10° SSW 18:24:18 55° SW 18:24:18 55° SW
Hubble Space Telescope 3.3 18:26:16 10° NW 18:27:30 17° NW 18:27:30 17° NW
NOSS 3-3 (C) 4.5 18:22:52 10° NNW 18:31:15 84° WSW 18:32:34 66° SSE
YAOGAN 1 4.5 18:33:54 27° WNW 18:33:54 27° WNW 18:36:14 10° NW
CZ-3 Stage 3 3.0 18:24:45 10° W 18:41:39 60° NNW 18:41:39 60° NNW
BREEZE-M DEB (TANK) 4.3 18:18:14 10° NW 18:43:29 75° NE 18:43:39 75° NE
Cosmos 2333 Rocket 3.3 18:42:47 10° SSW 18:46:58 40° WSW 18:46:58 40° WSW
ADEOS Rocket 4.0 18:54:38 43° SW 18:54:38 43° SW 18:59:22 10° SSW
Cosmos 2227 Rocket 4.3 18:58:30 10° NW 19:00:13 20° NW 19:00:13 20° NW
